When you browse on this site, cookies collect data to enhance your experience and personalize the content and advertising you see.
Visit our Privacy Policy to learn more. By continuing to use the site, you agree to this use of cookies and data.
  • In Romania
  • List of Countries
  • For 7 days
  • Water Temperature
  • Satellite Maps
  • Weather Map
  • Weather Widgets
  • user-avatar
    Login

    Hourly Weather La Paz

    Today, 17 June, Monday

    Time Temperature Precipitation Wind Pressure Humidity
    00:00 +4°C° 0 mm 1 mps 474 mmHg 90%
    01:00 +3°C° 0 mm 0 mps 474 mmHg 91%
    02:00 +4°C° 0.1 mm 1 mps 474 mmHg 92%
    03:00 +4°C° 0.1 mm 1 mps 474 mmHg 92%
    04:00 +3°C° 0.1 mm 2 mps 474 mmHg 93%
    05:00 +4°C° 0 mm 1 mps 474 mmHg 92%
    06:00 +4°C° 0 mm 1 mps 475 mmHg 91%
    07:00 +4°C° 0 mm 1 mps 475 mmHg 89%
    08:00 +5°C° 0.1 mm 1 mps 475 mmHg 88%
    09:00 +5°C° 0.1 mm 1 mps 475 mmHg 86%
    10:00 +6°C° 0.1 mm 1 mps 475 mmHg 84%
    11:00 +6°C° 0.1 mm 2 mps 476 mmHg 77%
    12:00 +8°C° 0.1 mm 2 mps 476 mmHg 70%
    13:00 +9°C° 0.1 mm 2 mps 477 mmHg 62%
    14:00 +9°C° 0.1 mm 2 mps 476 mmHg 61%
    15:00 +9°C° 0.1 mm 3 mps 476 mmHg 60%
    16:00 +9°C° 0.1 mm 3 mps 476 mmHg 58%
    17:00 +8°C° 0 mm 2 mps 475 mmHg 65%
    18:00 +6°C° 0 mm 2 mps 474 mmHg 72%
    19:00 +6°C° 0 mm 1 mps 474 mmHg 78%
    20:00 +6°C° 0 mm 1 mps 474 mmHg 78%
    21:00 +5°C° 0 mm 1 mps 473 mmHg 77%
    22:00 +5°C° 0 mm 1 mps 473 mmHg 76%
    23:00 +5°C° 0 mm 1 mps 473 mmHg 76%

    Tomorrow, 18 June, Tuesday

    Time Temperature Precipitation Wind Pressure Humidity
    00:00 +5°C° 0 mm 1 mps 473 mmHg 77%
    01:00 +4°C° 0 mm 1 mps 473 mmHg 77%
    02:00 +4°C° 0 mm 1 mps 472 mmHg 77%
    03:00 +4°C° 0 mm 1 mps 472 mmHg 77%
    04:00 +4°C° 0 mm 1 mps 472 mmHg 76%
    05:00 +5°C° 0 mm 1 mps 473 mmHg 72%
    06:00 +6°C° 0 mm 1 mps 474 mmHg 67%
    07:00 +7°C° 0 mm 1 mps 476 mmHg 63%
    08:00 +9°C° 0 mm 1 mps 477 mmHg 56%
    09:00 +10°C° 0 mm 1 mps 478 mmHg 48%
    10:00 +12°C° 0 mm 1 mps 479 mmHg 40%
    11:00 +13°C° 0 mm 2 mps 478 mmHg 40%
    12:00 +13°C° 0 mm 2 mps 478 mmHg 40%
    13:00 +13°C° 0 mm 3 mps 478 mmHg 39%
    14:00 +13°C° 0.1 mm 3 mps 478 mmHg 40%
    15:00 +12°C° 0.1 mm 3 mps 477 mmHg 41%
    16:00 +12°C° 0.1 mm 3 mps 477 mmHg 42%
    17:00 +10°C° 0 mm 2 mps 476 mmHg 47%
    18:00 +8°C° 0 mm 2 mps 475 mmHg 53%
    19:00 +7°C° 0 mm 1 mps 474 mmHg 59%
    20:00 +7°C° 0 mm 1 mps 474 mmHg 59%
    21:00 +6°C° 0 mm 1 mps 474 mmHg 60%
    22:00 +5°C° 0 mm 0 mps 474 mmHg 60%
    23:00 +5°C° 0 mm 0 mps 473 mmHg 60%

    Day after tomorrow, 19 June, Wednesday

    Time Temperature Precipitation Wind Pressure Humidity
    00:00 +4°C° 0 mm 0 mps 473 mmHg 60%
    01:00 +4°C° 0 mm 0 mps 473 mmHg 60%
    02:00 +3°C° 0 mm 0 mps 472 mmHg 60%
    03:00 +3°C° 0 mm 0 mps 472 mmHg 60%
    04:00 +3°C° 0 mm 0 mps 472 mmHg 60%
    05:00 +4°C° 0 mm 0 mps 473 mmHg 58%
    06:00 +5°C° 0 mm 0 mps 475 mmHg 55%
    07:00 +6°C° 0 mm 0 mps 476 mmHg 53%
    08:00 +9°C° 0 mm 1 mps 477 mmHg 47%
    09:00 +11°C° 0 mm 1 mps 478 mmHg 41%
    10:00 +13°C° 0 mm 2 mps 479 mmHg 36%
    11:00 +13°C° 0 mm 2 mps 479 mmHg 38%
    12:00 +13°C° 0 mm 2 mps 479 mmHg 40%
    13:00 +14°C° 0 mm 2 mps 479 mmHg 43%
    14:00 +12°C° 0.1 mm 3 mps 478 mmHg 48%
    15:00 +11°C° 0.1 mm 3 mps 477 mmHg 54%
    16:00 +11°C° 0.1 mm 3 mps 476 mmHg 60%
    17:00 +9°C° 0 mm 3 mps 476 mmHg 68%
    18:00 +7°C° 0 mm 2 mps 475 mmHg 75%
    19:00 +6°C° 0 mm 2 mps 474 mmHg 83%
    20:00 +6°C° 0 mm 1 mps 474 mmHg 84%
    21:00 +5°C° 0 mm 1 mps 474 mmHg 85%
    22:00 +5°C° 0 mm 1 mps 474 mmHg 87%
    23:00 +4°C° 0 mm 1 mps 473 mmHg 86%

    20 June, Thursday

    Time Temperature Precipitation Wind Pressure Humidity
    00:00 +4°C° 0 mm 1 mps 473 mmHg 85%
    01:00 +3°C° 0 mm 0 mps 473 mmHg 85%
    02:00 +4°C° 0 mm 1 mps 473 mmHg 83%
    03:00 +4°C° 0 mm 1 mps 472 mmHg 81%
    04:00 +3°C° 0 mm 1 mps 472 mmHg 80%
    05:00 +4°C° 0 mm 1 mps 473 mmHg 78%
    06:00 +5°C° 0 mm 1 mps 474 mmHg 76%
    07:00 +5°C° 0 mm 1 mps 475 mmHg 74%
    08:00 +6°C° 0 mm 2 mps 476 mmHg 66%
    09:00 +8°C° 0 mm 2 mps 478 mmHg 58%
    10:00 +9°C° 0 mm 2 mps 479 mmHg 49%
    11:00 +10°C° 0 mm 2 mps 479 mmHg 47%
    12:00 +11°C° 0 mm 3 mps 479 mmHg 44%
    13:00 +12°C° 0 mm 3 mps 479 mmHg 41%
    14:00 +11°C° 0 mm 3 mps 478 mmHg 45%
    15:00 +11°C° 0 mm 3 mps 478 mmHg 49%
    16:00 +10°C° 0 mm 3 mps 477 mmHg 53%
    17:00 +9°C° 0 mm 2 mps 476 mmHg 61%
    18:00 +8°C° 0 mm 1 mps 475 mmHg 69%
    19:00 +6°C° 0 mm 1 mps 474 mmHg 77%
    20:00 +6°C° 0 mm 1 mps 474 mmHg 78%
    21:00 +5°C° 0 mm 1 mps 474 mmHg 78%
    22:00 +5°C° 0 mm 1 mps 474 mmHg 78%
    23:00 +4°C° 0 mm 1 mps 474 mmHg 71%

    21 June, Friday

    Time Temperature Precipitation Wind Pressure Humidity
    00:00 +4°C° 0 mm 1 mps 473 mmHg 65%
    01:00 +4°C° 0 mm 1 mps 473 mmHg 59%
    02:00 +3°C° 0 mm 1 mps 472 mmHg 55%
    03:00 +3°C° 0 mm 1 mps 472 mmHg 52%
    04:00 +1°C° 0 mm 0 mps 471 mmHg 49%
    05:00 +2°C° 0 mm 0 mps 473 mmHg 49%
    06:00 +3°C° 0 mm 0 mps 474 mmHg 50%
    07:00 +5°C° 0 mm 0 mps 475 mmHg 50%
    08:00 +6°C° 0 mm 0 mps 477 mmHg 43%
    09:00 +9°C° 0 mm 1 mps 478 mmHg 35%
    10:00 +11°C° 0 mm 1 mps 479 mmHg 27%
    11:00 +12°C° 0 mm 2 mps 479 mmHg 28%
    12:00 +13°C° 0 mm 2 mps 479 mmHg 30%
    13:00 +13°C° 0 mm 2 mps 479 mmHg 31%
    14:00 +13°C° 0 mm 2 mps 478 mmHg 35%
    15:00 +12°C° 0 mm 2 mps 478 mmHg 39%
    16:00 +12°C° 0 mm 2 mps 477 mmHg 43%
    17:00 +9°C° 0 mm 2 mps 476 mmHg 53%
    18:00 +8°C° 0 mm 1 mps 475 mmHg 63%
    19:00 +6°C° 0 mm 1 mps 474 mmHg 73%
    20:00 +5°C° 0 mm 1 mps 474 mmHg 71%
    21:00 +5°C° 0 mm 1 mps 474 mmHg 69%
    22:00 +4°C° 0 mm 0 mps 474 mmHg 67%
    23:00 +3°C° 0 mm 0 mps 473 mmHg 63%

    22 June, Saturday

    Time Temperature Precipitation Wind Pressure Humidity
    00:00 +3°C° 0 mm 0 mps 473 mmHg 58%
    01:00 +3°C° 0 mm 0 mps 473 mmHg 53%
    02:00 +2°C° 0 mm 0 mps 472 mmHg 53%
    03:00 +2°C° 0 mm 0 mps 472 mmHg 53%
    04:00 +1°C° 0 mm 0 mps 472 mmHg 53%
    05:00 +3°C° 0 mm 0 mps 473 mmHg 53%
    06:00 +4°C° 0 mm 0 mps 474 mmHg 53%
    07:00 +5°C° 0 mm 0 mps 476 mmHg 52%
    08:00 +8°C° 0 mm 1 mps 477 mmHg 47%
    09:00 +10°C° 0 mm 1 mps 478 mmHg 42%
    10:00 +12°C° 0 mm 1 mps 479 mmHg 37%
    11:00 +12°C° 0 mm 2 mps 479 mmHg 38%
    12:00 +13°C° 0 mm 2 mps 479 mmHg 39%
    13:00 +13°C° 0 mm 2 mps 479 mmHg 40%
    14:00 +13°C° 0 mm 2 mps 478 mmHg 45%
    15:00 +11°C° 0 mm 3 mps 477 mmHg 49%
    16:00 +11°C° 0 mm 3 mps 477 mmHg 54%
    17:00 +9°C° 0 mm 2 mps 476 mmHg 63%
    18:00 +8°C° 0 mm 1 mps 475 mmHg 72%
    19:00 +6°C° 0 mm 1 mps 474 mmHg 81%
    20:00 +6°C° 0 mm 1 mps 474 mmHg 83%
    21:00 +4°C° 0 mm 0 mps 473 mmHg 85%
    22:00 +3°C° 0 mm 0 mps 473 mmHg 87%
    23:00 +3°C° 0 mm 0 mps 473 mmHg 82%
    Show more